064  
ASUS44 KLZK 262005  
RWRLZK  
 
WEATHER ROUNDUP FOR ARKANSAS  
NATIONAL WEATHER SERVICE LITTLE ROCK AR  
300 PM CDT WED JUL 26 2017  
 
NOTE: "FAIR" INDICATES FEW OR NO CLOUDS BELOW 12,000 FEET WITH NO  
SIGNIFICANT WEATHER AND/OR S TO VISIBILITY
.  
 
ARZ001-003-010-029-262100-  
NORTHWEST ARKANSAS  
 
CITY SKY/WX TMP DP RH WIND PRES REMARKS
 
FAYETTEVILLE CLOUDY 89 75 63 S10 30.06F HX 99  
FORT SMITH CLOUDY 97 71 42 SW12 30.01F HX 104  
HARRISON CLOUDY 91 71 51 SW8 30.07F HX 97  
BENTONVILLE CLOUDY 91 72 52 SW10G16 30.07F HX 98  
ROGERS CLOUDY 92 72 51 S9 30.06F HX 99  
SILOAM SPGS CLOUDY 91 70 49 S14G20 30.04F HX 97  
HIGHFILL CLOUDY 93 71 48 SW14 30.05F HX 100  
SPRINGDALE MOSUNNY 91 70 49 S12G18 30.08F HX 97  

 
 
ARZ004-005-016-262100-  
NORTH CENTRAL ARKANSAS  
 
CITY SKY/WX TMP DP RH WIND PRES REMARKS
 
BATESVILLE SUNNY 97 68 38 S8 30.03F HX 101  
FLIPPIN CLOUDY 95 68 41 S8 30.02F HX 99  
MTN HOME CLOUDY 92 72 51 VRB5 30.04F HX 99  

 
 
ARZ040-041-262100-  
WEST CENTRAL ARKANSAS  
 
CITY SKY/WX TMP DP RH WIND PRES REMARKS
 
MENA CLOUDY 95 70 43 SE6 30.08F HX 101  
MOUNT IDA MOSUNNY 93 66 40 VRB5 30.05F HX 96  

 
 
ARZ009-017-025-026-028-262100-  
NORTHEAST ARKANSAS  
 
CITY SKY/WX TMP DP RH WIND PRES REMARKS
 
JONESBORO SUNNY 95 74 50 S15G21 30.03F HX 105  
WALNUT RIDGE MOSUNNY 97 70 41 CALM 30.01F HX 103  
BLYTHEVILLE MOSUNNY 93 74 53 SW8G17 30.04F HX 103  

 
 
ARZ022-023-033-042-044-262100-  
CENTRAL ARKANSAS  
 
CITY SKY/WX TMP DP RH WIND PRES REMARKS
 
LITTLE ROCK MOSUNNY 94 73 50 S10 30.04F HX 103  
N LITTLE ROCK N/A 94 73 50 W5 30.02F HX 103  
JACKSONVILLE SUNNY 96 75 50 S3 30.03F HX 107  
CONWAY N/A 97 72 44 VRB7 30.01F HX 105  
SEARCY SUNNY 94 76 55 S7 30.06F HX 106  
HOT SPRINGS PTSUNNY 93 72 50 S5 30.06F HX 101  
RUSSELLVILLE CLOUDY 94 70 45 VRB6 30.02F HX 100  
CLINTON FAIR 95 72 46 VRB5G15 30.04F HX 103  

 
 
ARZ036-262100-  
EAST ARKANSAS  
 
CITY SKY/WX TMP DP RH WIND PRES REMARKS
 
WEST MEMPHIS SUNNY 93 75 55 SW6 30.04F HX 104  

 
 
ARZ050-053-066-070-073-262100-  
SOUTHWEST ARKANSAS  
 
CITY SKY/WX TMP DP RH WIND PRES REMARKS
 
ARKADELPHIA MOCLDY 93 75 55 SW7 30.05F HX 104  
CAMDEN MOSUNNY 95 70 43 S6 30.06F HX 101  
TEXARKANA MOSUNNY 93 74 53 SW7 30.06F HX 103  
EL DORADO SUNNY 94 72 48 SW8 30.07F HX 102  
DE QUEEN MOSUNNY 93 75 55 SW7 30.03F HX 104  

 
 
ARZ056-057-069-262100-  
SOUTHEAST ARKANSAS  
 
CITY SKY/WX TMP DP RH WIND PRES REMARKS
 
PINE BLUFF SUNNY 92 72 51 SW8 30.06F HX 99  
STUTTGART MOSUNNY 95 64 36 MISG 30.06F HX 97  
MONTICELLO MOSUNNY 94 71 47 VRB5 30.07F HX 101  
 

 
 
 
 
CLICK HERE TO GO TO PREVIOUS BULLETINS.

The Nexlab AR Page Main Text Page